Flag for Faroe Islands Weather past 2 weeks in Klaksvík, Faroe Islands, Faroe Islands

Now
45 °F

Cool.


Feels Like: 40 °F
Forecast: 43 / 52 °F
Wind: 9 mph from North

Location: Thorshavn

Current Time: Jul 8, 2015 at 4:12:40 AM

Latest Report: Jul 8, 2015 at 3:00 AM


Visibility: N/A

Pressure: 29.88 "Hg

Humidity: 83%

Dew point: 40 °F

Location of KlaksvíkLocation

Historic Weather in Klaksvík — Graph

°F

Klaksvík temperature yesterday

Maximum temperature yesterday: 51 °F (at 2:00 PM)
Minimum temperature yesterday: 46 °F (at 7:00 AM)
Average temperature yesterday: 48 °F

Past Weeks' High & Low Weather Summary

 TemperatureHumidityPressure
High60 °F (Jul 1, 2:00 PM)100% (Jun 26, 7:00 PM)30.32 "Hg (Jun 26, 7:00 PM)
Low44 °F (Jun 24, 3:00 AM)64% (Jun 23, 4:00 PM)29.65 "Hg (Jun 28, 6:00 PM)
Average49 °F92%29.97 "Hg
* Reported Jun 23 2:00 AM — Jul 8 2:00 AM, Klaksvík, Weather by CustomWeather, © 2015

Note: Actual official high and low records may vary slightly from our data, if they occured in-between our weather recording intervals... More about our weather records

Advertising

Klaksvík weather history for previous 24 hours

 ConditionsComfort  
Time TempWeatherWind HumidityBarometerVisibility
2:00 AM
Wed, Jul 8
46 °FCool.12 mph83%29.89 "HgN/A
1:00 AM46 °FCool.10 mph81%29.88 "HgN/A
12:00 AM46 °FCool.15 mph80%29.88 "HgN/A
11:00 PM
Tue, Jul 7
46 °FCool.13 mph84%29.87 "HgN/A
10:00 PM47 °FCool.15 mph75%29.85 "HgN/A
9:00 PM48 °FCool.21 mph77%29.84 "HgN/A
8:00 PM48 °FCool.21 mph74%29.83 "HgN/A
7:00 PM48 °FCool.22 mph78%29.82 "HgN/A
6:00 PM46 °FCool.28 mph92%29.83 "HgN/A
5:00 PM48 °FCool.24 mph86%29.82 "HgN/A
4:00 PM49 °FCool.23 mph85%29.81 "HgN/A
3:00 PM50 °FCool.25 mph81%29.81 "HgN/A
2:00 PM51 °FCool.22 mph79%29.80 "HgN/A
1:00 PM49 °FCool.23 mph90%29.81 "HgN/A
12:00 PM49 °FCool.20 mph86%29.81 "HgN/A
11:00 AM48 °FCool.21 mph87%29.81 "HgN/A
10:00 AM47 °FCool.25 mph90%29.80 "HgN/A
9:00 AM46 °FCool.21 mph94%29.80 "HgN/A
8:00 AM46 °FCool.17 mph92%29.80 "HgN/A
7:00 AM46 °FCool.20 mph94%29.81 "HgN/A
6:00 AM46 °FCool.17 mph94%29.82 "HgN/A
5:00 AM47 °FCool.15 mph92%29.83 "HgN/A
Weather by CustomWeather, © 2015

See weather overviewHow to use our weather pages